Overview Statistics Trail Chart Weather Telemetry Raw packets
 

This is the latest recevied weather packets stored in our database for station/object N1SU-13. If no packets are shown the sender has not sent any weather packets the latest 10 day(s).

<< 6 7 8 9 10 11 12 >>
Time Temp. Humidity Pressure Rain* Wind** Luminosity Snow
1788576215 13.33° C 82% 1014.3 hPa 0 mm - - -
1788575552 13.33° C 80% 1014.2 hPa 0 mm - - -
1788574993 13.33° C 79% 1014 hPa 0 mm - - -
1788574407 13.33° C 78% 1014.1 hPa 0 mm - - -
1788573796 13.33° C 79% 1014 hPa 0 mm - - -
1788573163 13.89° C 80% 1014 hPa 0 mm - - -
1788572501 13.89° C 79% 1014.1 hPa 0 mm - - -
1788571918 13.89° C 78% 1014 hPa 0.25 mm - - -
1788571319 14.44° C 78% 1013.9 hPa 0.25 mm - - -
1788570685 14.44° C 78% 1013.7 hPa 0.25 mm - - -
1788570112 15° C 81% 1013.7 hPa 0.25 mm - - -
1788569504 15° C 79% 1013.6 hPa 0.25 mm - - -
1788568875 15.56° C 77% 1013.3 hPa 0.25 mm - - -
1788568286 15.56° C 75% 1013.2 hPa 0 mm - - -
1788567652 16.11° C 75% 1013.2 hPa 0 mm - - -
1788567222 16.11° C 74% 1013.2 hPa 0 mm - - -
1788567001 16.11° C 73% 1013 hPa 0 mm - - -
1788566699 16.11° C 71% 1012.9 hPa 0 mm - - -
1788566436 16.11° C 70% 1012.8 hPa 0 mm - - -
1788566149 16.67° C 69% 1012.9 hPa 0 mm - - -
1788565764 16.67° C 67% 1012.9 hPa 0 mm - - -
1788565029 17.22° C 64% 1012.8 hPa 0 mm - - -
1788564869 17.22° C 64% 1012.8 hPa 0 mm - - -
1788564421 17.22° C 64% 1012.7 hPa 0 mm - - -
1788564329 17.78° C 65% 1012.6 hPa 0 mm - - -

* Rain latest hour (hover to see other rain measurements)
** Current wind speed in m/s (hover to see current wind gust speed)